This is the latest recevied weather packets stored in our database for station/object KE2HEH. If no packets are shown the sender has not sent any weather packets the latest 10 day(s).
| Time | Temp. | Humidity | Pressure | Rain* | Wind** | Luminosity | Snow |
|---|---|---|---|---|---|---|---|
| 1777766045 | 12.78° C | 73% | 1011 hPa | 0 mm | - | 0 W/m² | - |
| 1777765743 | 13.33° C | 71% | 1010.9 hPa | 0 mm | - | 0 W/m² | - |
| 1777765439 | 13.33° C | 69% | 1011 hPa | 0 mm | - | 3 W/m² | - |
| 1777765136 | 13.33° C | 68% | 1011 hPa | 0 mm | - | 6 W/m² | - |
| 1777764832 | 13.89° C | 66% | 1010.9 hPa | 0 mm | - | 10 W/m² | - |
| 1777764529 | 13.89° C | 65% | 1010.9 hPa | 0 mm | - | 18 W/m² | - |
| 1777764225 | 13.89° C | 64% | 1010.7 hPa | 0 mm | - | 24 W/m² | - |
| 1777763922 | 13.89° C | 64% | 1010.6 hPa | 0 mm | - | 32 W/m² | - |
| 1777763620 | 14.44° C | 63% | 1010.9 hPa | 0 mm | - | 29 W/m² | - |
| 1777763318 | 14.44° C | 63% | 1010.6 hPa | 0 mm | - | 32 W/m² | - |
| 1777763015 | 15° C | 62% | 1010.7 hPa | 0 mm | - | 38 W/m² | - |
| 1777762712 | 15° C | 63% | 1010.9 hPa | 0 mm | - | 43 W/m² | - |
| 1777762409 | 15.56° C | 60% | 1010.7 hPa | 0 mm | - | 62 W/m² | - |
| 1777762106 | 15.56° C | 59% | 1010.6 hPa | 0 mm | - | 49 W/m² | - |
| 1777761802 | 16.11° C | 58% | 1010.5 hPa | 0 mm | - | 71 W/m² | - |
| 1777761500 | 15.56° C | 60% | 1010.4 hPa | 0 mm | - | 70 W/m² | - |
| 1777761197 | 15° C | 60% | 1010.4 hPa | 0 mm | - | 60 W/m² | - |
| 1777760895 | 14.44° C | 63% | 1010.5 hPa | 0 mm | - | 61 W/m² | - |
| 1777760592 | 14.44° C | 65% | 1010.6 hPa | 0 mm | - | 94 W/m² | - |
| 1777760288 | 13.89° C | 61% | 1010.3 hPa | 0 mm | - | 103 W/m² | - |
| 1777759984 | 13.89° C | 67% | 1010.6 hPa | 0 mm | - | 106 W/m² | - |
| 1777759681 | 13.33° C | 71% | 1010.4 hPa | 0 mm | - | 97 W/m² | - |
| 1777759377 | 13.33° C | 70% | 1010.5 hPa | 0 mm | - | 131 W/m² | - |
| 1777759074 | 13.33° C | 74% | 1010.4 hPa | 0 mm | - | 181 W/m² | - |
| 1777758771 | 13.33° C | 75% | 1010.6 hPa | 0 mm | - | 122 W/m² | - |
* Rain latest hour (hover to see other rain measurements)
** Current wind speed in m/s (hover to see current wind gust speed)